PWSweather.com
Personal Weather Stations
Station Observations

AwhituWaiuku, CA 268400

Lat: -37.058, Lon: -174.6346

Elevation: 250

Station Type: Personal

http://www.weather-display.com/windy/gb/grahamsbeach.htm

Latest ConditionsUpdated 3:30:11 PM GMT-12:48 Monday, Oct 20, 2014
Currently Today's Max Today's Min Today's Average
Temperature 60.8°F16.0°C 65.9°F18.8°C 55.7°F13.2°C 59.3°F15.2°C
Dew Point 60.2°F15.7°C 65.3°F18.5°C 55.2°F12.9°C 58.7°F14.8°C
Winds 8.1 mph S13.0 kmh S 15.0 mph SW24.1 kmh SW - 8.4 mph 13.5 kmh
Wind Gusts 9.2 mph14.8 kmh 18.4 mph29.6 kmh - -
Humidity 98% 98% 98% 98%
Pressure 30.04 in1017.3 mb 30.08 in1018.6 mb 30.01 in1016.3 mb -
Hour Temp Dew Point Humidity Winds Wind Gusts Pressure Precip Precip Rate Daily Precip Total
03:30 PM 60.8°F16.0°C 60.2°F15.7°C 98% 8.1 mph S13.0 kmh S 9.2 mph14.8 kmh 30.04 in1017.3 mb 0.00 in0.0 mm 0.00 in/hr0.0 mm/hr 0.00 in0.0 mm
03:00 PM 61.3°F16.3°C 60.7°F15.9°C 98% 8.1 mph SW13.0 kmh SW 10.4 mph16.7 kmh 30.04 in1017.3 mb 0.00 in0.0 mm 0.00 in/hr0.0 mm/hr 0.00 in0.0 mm
02:30 PM 62.8°F17.1°C 62.3°F16.8°C 98% 8.1 mph WNW13.0 kmh WNW 10.4 mph16.7 kmh 30.03 in1016.9 mb 0.00 in0.0 mm 0.00 in/hr0.0 mm/hr 0.00 in0.0 mm
02:00 PM 63.1°F17.3°C 62.5°F16.9°C 98% 8.1 mph SW13.0 kmh SW 10.4 mph16.7 kmh 30.04 in1017.3 mb 0.00 in0.0 mm 0.00 in/hr0.0 mm/hr 0.00 in0.0 mm
01:30 PM 65.9°F18.8°C 65.3°F18.5°C 98% 11.5 mph W18.5 kmh W 16.1 mph25.9 kmh 30.05 in1017.6 mb 0.00 in0.0 mm 0.00 in/hr0.0 mm/hr 0.00 in0.0 mm
01:00 PM 64.6°F18.1°C 64.0°F17.8°C 98% 10.4 mph W16.7 kmh W 12.7 mph20.4 kmh 30.05 in1017.6 mb 0.00 in0.0 mm 0.00 in/hr0.0 mm/hr 0.00 in0.0 mm
12:30 PM 65.3°F18.5°C 64.8°F18.2°C 98% 10.4 mph W16.7 kmh W 16.1 mph25.9 kmh 30.06 in1017.9 mb 0.00 in0.0 mm 0.00 in/hr0.0 mm/hr 0.00 in0.0 mm
12:00 PM 62.7°F17.1°C 62.2°F16.8°C 98% 10.4 mph W16.7 kmh W 11.5 mph18.5 kmh 30.06 in1017.9 mb 0.00 in0.0 mm 0.00 in/hr0.0 mm/hr 0.00 in0.0 mm
11:30 AM 64.5°F18.1°C 63.9°F17.7°C 98% 8.1 mph W13.0 kmh W 9.2 mph14.8 kmh 30.06 in1017.9 mb 0.00 in0.0 mm 0.00 in/hr0.0 mm/hr 0.00 in0.0 mm
11:00 AM 62.0°F16.7°C 61.4°F16.3°C 98% 8.1 mph SW13.0 kmh SW 8.1 mph13.0 kmh 30.07 in1018.3 mb 0.00 in0.0 mm 0.00 in/hr0.0 mm/hr 0.00 in0.0 mm
10:30 AM 61.7°F16.5°C 61.2°F16.2°C 98% 9.2 mph W14.8 kmh W 11.5 mph18.5 kmh 30.07 in1018.3 mb 0.00 in0.0 mm 0.00 in/hr0.0 mm/hr 0.00 in0.0 mm
10:00 AM 61.6°F16.4°C 61.0°F16.1°C 98% 1.2 mph SW1.9 kmh SW 1.2 mph1.9 kmh 30.07 in1018.3 mb 0.00 in0.0 mm 0.00 in/hr0.0 mm/hr 0.00 in0.0 mm
09:30 AM 60.2°F15.7°C 59.6°F15.3°C 98% 6.9 mph SW11.1 kmh SW 8.1 mph13.0 kmh 30.08 in1018.6 mb 0.00 in0.0 mm 0.00 in/hr0.0 mm/hr 0.00 in0.0 mm
09:00 AM 59.3°F15.2°C 58.7°F14.8°C 98% 5.8 mph WSW9.3 kmh WSW 8.1 mph13.0 kmh 30.08 in1018.6 mb 0.00 in0.0 mm 0.00 in/hr0.0 mm/hr 0.00 in0.0 mm
08:30 AM 59.2°F15.1°C 58.7°F14.8°C 98% 8.1 mph WSW13.0 kmh WSW 8.1 mph13.0 kmh 30.07 in1018.3 mb 0.00 in0.0 mm 0.00 in/hr0.0 mm/hr 0.00 in0.0 mm
08:00 AM 58.5°F14.7°C 58.0°F14.4°C 98% 8.1 mph WSW13.0 kmh WSW 10.4 mph16.7 kmh 30.07 in1018.3 mb 0.00 in0.0 mm 0.00 in/hr0.0 mm/hr 0.00 in0.0 mm
07:30 AM 57.8°F14.3°C 57.2°F14.0°C 98% 5.8 mph SW9.3 kmh SW 11.5 mph18.5 kmh 30.07 in1018.3 mb 0.00 in0.0 mm 0.00 in/hr0.0 mm/hr 0.00 in0.0 mm
07:00 AM 56.9°F13.8°C 56.3°F13.5°C 98% 6.9 mph SW11.1 kmh SW 9.2 mph14.8 kmh 30.06 in1017.9 mb 0.00 in0.0 mm 0.00 in/hr0.0 mm/hr 0.00 in0.0 mm
06:30 AM 55.7°F13.2°C 55.2°F12.9°C 98% 8.1 mph SW13.0 kmh SW 11.5 mph18.5 kmh 30.05 in1017.6 mb 0.00 in0.0 mm 0.00 in/hr0.0 mm/hr 0.00 in0.0 mm
06:00 AM 55.8°F13.2°C 55.3°F12.9°C 98% 9.2 mph SW14.8 kmh SW 11.5 mph18.5 kmh 30.05 in1017.6 mb 0.00 in0.0 mm 0.00 in/hr0.0 mm/hr 0.00 in0.0 mm
05:30 AM 56.0°F13.3°C 55.5°F13.1°C 98% 6.9 mph SW11.1 kmh SW 9.2 mph14.8 kmh 30.03 in1016.9 mb 0.00 in0.0 mm 0.00 in/hr0.0 mm/hr 0.00 in0.0 mm
05:00 AM 56.0°F13.3°C 55.4°F13.0°C 98% 8.1 mph WSW13.0 kmh WSW 9.2 mph14.8 kmh 30.03 in1016.9 mb 0.00 in0.0 mm 0.00 in/hr0.0 mm/hr 0.00 in0.0 mm
04:30 AM 56.1°F13.4°C 55.5°F13.1°C 98% 6.9 mph SW11.1 kmh SW 11.5 mph18.5 kmh 30.02 in1016.6 mb 0.00 in0.0 mm 0.00 in/hr0.0 mm/hr 0.00 in0.0 mm
04:00 AM 56.4°F13.6°C 55.8°F13.2°C 98% 8.1 mph SW13.0 kmh SW 9.2 mph14.8 kmh 30.02 in1016.6 mb 0.00 in0.0 mm 0.00 in/hr0.0 mm/hr 0.00 in0.0 mm
03:30 AM 56.6°F13.7°C 56.1°F13.4°C 98% 8.1 mph SW13.0 kmh SW 10.4 mph16.7 kmh 30.01 in1016.3 mb 0.00 in0.0 mm 0.00 in/hr0.0 mm/hr 0.00 in0.0 mm
03:00 AM 56.7°F13.7°C 56.2°F13.4°C 98% 8.1 mph WSW13.0 kmh WSW 9.2 mph14.8 kmh 30.01 in1016.3 mb 0.00 in0.0 mm 0.00 in/hr0.0 mm/hr 0.00 in0.0 mm
02:30 AM 56.7°F13.7°C 56.2°F13.4°C 98% 8.1 mph SW13.0 kmh SW 9.2 mph14.8 kmh 30.01 in1016.3 mb 0.00 in0.0 mm 0.00 in/hr0.0 mm/hr 0.00 in0.0 mm
02:00 AM 56.6°F13.7°C 56.0°F13.3°C 98% 6.9 mph SSW11.1 kmh SSW 8.1 mph13.0 kmh 30.01 in1016.3 mb 0.00 in0.0 mm 0.00 in/hr0.0 mm/hr 0.00 in0.0 mm
01:30 AM 56.6°F13.7°C 56.1°F13.4°C 98% 8.1 mph SW13.0 kmh SW 12.7 mph20.4 kmh 30.01 in1016.3 mb 0.00 in0.0 mm 0.00 in/hr0.0 mm/hr 0.00 in0.0 mm
01:00 AM 56.4°F13.6°C 55.8°F13.2°C 98% 12.7 mph SW20.4 kmh SW 15.0 mph24.1 kmh 30.01 in1016.3 mb 0.00 in0.0 mm 0.00 in/hr0.0 mm/hr 0.00 in0.0 mm
12:30 AM 56.1°F13.4°C 55.6°F13.1°C 98% 10.4 mph SW16.7 kmh SW 13.8 mph22.2 kmh 30.01 in1016.3 mb 0.00 in0.0 mm 0.00 in/hr0.0 mm/hr 0.00 in0.0 mm
12:00 AM 56.3°F13.5°C 55.7°F13.2°C 98% 15.0 mph SW24.1 kmh SW 18.4 mph29.6 kmh 30.01 in1016.3 mb 0.00 in0.0 mm 0.00 in/hr0.0 mm/hr 0.00 in0.0 mm